Flag for U.S.A. Weather past 2 weeks in Gloucester, Massachusetts, U.S.A.

Now
67 °F

Sunny.


Feels Like: 67 °F
Forecast: 63 / 74 °F
Wind: 3 mph from Northwest

Location: Beverly Municipal Airport

Current Time: Aug 28, 2015 at 9:18:06 AM

Latest Report: Aug 28, 2015 at 8:53 AM


Visibility: 10 mi

Pressure: 30.12 "Hg

Humidity: 68%

Dew point: 56 °F

Location of GloucesterLocation

Historic Weather in Gloucester — Graph

°F

Gloucester temperature yesterday

Maximum temperature yesterday: 80 °F (at 1:53 PM)
Minimum temperature yesterday: 58 °F (at 5:53 AM)
Average temperature yesterday: 69 °F

Past Weeks' High & Low Weather Summary

 TemperatureHumidityPressure
High90 °F (Aug 17, 12:53 PM)97% (Aug 20, 4:59 AM)30.12 "Hg (Aug 20, 4:59 AM)
Low56 °F (Aug 28, 5:53 AM)41% (Aug 14, 10:53 AM)29.82 "Hg (Aug 25, 6:53 PM)
Average73 °F77%29.99 "Hg
* Reported Aug 13 7:53 AM — Aug 28 7:53 AM, Gloucester, Weather by CustomWeather, © 2015

Note: Actual official high and low records may vary slightly from our data, if they occured in-between our weather recording intervals... More about our weather records

Advertising

Gloucester weather history for previous 24 hours

 ConditionsComfort  
Time TempWeatherWind HumidityBarometerVisibility
7:53 AM
Fri, Aug 28
63 °FSunny.3 mph75%30.11 "Hg10 mi
6:53 AM58 °FClear.3 mph84%30.10 "Hg10 mi
5:53 AM56 °FClear.3 mph87%30.08 "Hg10 mi
4:53 AM58 °FClear.5 mph84%30.07 "Hg10 mi
3:53 AM59 °FClear.7 mph81%30.06 "Hg10 mi
2:53 AM59 °FClear.6 mph81%30.06 "Hg10 mi
1:53 AM61 °FClear.5 mph75%30.05 "Hg10 mi
12:53 AM61 °FClear.5 mph78%30.05 "Hg10 mi
11:53 PM
Thu, Aug 27
61 °FClear.5 mph78%30.04 "Hg10 mi
10:53 PM61 °FClear.7 mph78%30.03 "Hg10 mi
9:53 PM65 °FClear.3 mph70%30.03 "Hg10 mi
8:53 PM66 °FClear.5 mph68%30.01 "Hg10 mi
7:53 PM71 °FScattered clouds.7 mph55%29.99 "Hg10 mi
6:53 PM73 °FScattered clouds.No wind55%29.96 "Hg10 mi
5:53 PM77 °FScattered clouds.6 mph47%29.95 "Hg10 mi
4:53 PM76 °FPartly sunny.3 mph52%29.94 "Hg10 mi
3:53 PM76 °FMostly cloudy.12 mph47%29.93 "Hg10 mi
2:53 PM80 °FScattered clouds.9 mph44%29.93 "Hg10 mi
1:53 PM80 °FScattered clouds.8 mph44%29.94 "Hg10 mi
12:53 PM78 °FSunny.12 mph43%29.95 "Hg10 mi
11:53 AM76 °FSunny.5 mph47%29.96 "Hg10 mi
10:53 AM75 °FSunny.9 mph52%29.97 "Hg10 mi
9:53 AM73 °FSunny.9 mph55%29.97 "Hg10 mi
Weather by CustomWeather, © 2015

See weather overviewHow to use our weather pages